Date String (YYYY-MM-DD hh:mm:ss) UTC,Instrument flags,absolute air pressure of the measurement (hPa),sample flow rate (lpm),inlet stack bypass flow (lpm),air temperature of the measurement (°C),ambient temperature measured by the external sensor (°C),aerosol sample conditioner tube jacket temperature (°C),OPC LED temperature (°C),internal box temperature (°C),relative humidity of the measurement (%),span deviation,mass concentration of particles derived from Lorenz-Mie calculation of OPC scattering (μg/m³),mass concentration of particles derived from Lorenz-Mie calculation of OPC scattering (μg/m³),mass concentration of particles derived from Lorenz-Mie calculation of OPC scattering (μg/m³)
DateTimeUTC,F1_M11,P_M11,Q1_M11,Q2_M11,T1_M11,T2_M11,T3_M11,T4_M11,T5_M11,U1_M11,ZSPAN_M11,X0_M11,X2_M11,X1_M11
2023-10-18 11:00:00,SystemResetWarning,0831.8,5.00,000.00,028.1,026.4,000.0,036.7,029.5,18.6,0000.0,0026.33,0004.89,0002.51
2023-10-18 11:01:00,SystemResetWarning,0831.7,5.00,000.00,028.0,026.3,000.0,036.7,029.5,18.6,0000.0,0025.75,0004.87,0002.51
2023-10-18 11:02:00,SystemResetWarning,0831.7,5.00,000.00,028.0,026.4,000.0,036.7,029.5,18.6,0000.0,0025.51,0004.89,0002.53
2023-10-18 11:03:00,SystemResetWarning,0831.7,5.01,000.00,028.0,026.4,000.0,036.7,029.5,18.6,0000.0,0024.37,0004.87,0002.53
2023-10-18 11:04:00,SystemResetWarning,0831.7,5.00,000.00,028.0,026.3,000.0,036.6,029.5,18.6,0000.0,0022.55,0004.94,0002.54
2023-10-18 11:05:00,SystemResetWarning,0831.7,5.00,000.00,028.0,026.3,000.0,036.6,029.5,18.6,0000.0,0022.40,0004.99,0002.53
2023-10-18 11:06:00,SystemResetWarning,0831.7,5.00,000.00,028.0,026.3,000.0,036.6,029.5,18.6,0000.0,0023.14,0005.04,0002.53
2023-10-18 11:07:00,SystemResetWarning,0831.7,5.00,000.00,028.0,026.3,000.0,036.6,029.4,18.7,0000.0,0022.69,0005.05,0002.55
2023-10-18 11:08:00,SystemResetWarning,0831.7,5.00,000.00,027.9,026.3,000.0,036.6,029.4,18.7,0000.0,0022.52,0005.05,0002.55
2023-10-18 11:09:00,SystemResetWarning,0831.7,5.00,000.00,027.9,026.3,000.0,036.6,029.4,18.7,0000.0,0022.84,0004.98,0002.54
2023-10-18 11:10:00,SystemResetWarning,0831.7,5.00,000.00,027.9,026.3,000.0,036.5,029.4,18.6,0000.0,0024.49,0004.87,0002.54
2023-10-18 11:11:00,SystemResetWarning,0831.7,5.00,000.00,027.9,026.3,000.0,036.5,029.4,18.6,0000.0,0025.17,0004.87,0002.54
2023-10-18 11:12:00,SystemResetWarning,0831.7,5.01,000.00,027.9,026.3,000.0,036.5,029.5,18.6,0000.0,0026.01,0004.93,0002.53
2023-10-18 11:13:00,SystemResetWarning,0831.7,5.00,000.00,027.9,026.3,000.0,036.5,029.4,18.6,0000.0,0026.10,0004.91,0002.53
2023-10-18 11:14:00,SystemResetWarning,0832.1,5.00,000.00,027.9,026.3,000.0,036.5,029.4,18.6,0000.0,0026.58,0004.86,0002.52
2023-10-18 11:15:00,SystemResetWarning,0832.0,5.00,000.00,027.9,026.3,000.0,036.5,029.4,18.6,0000.0,0026.25,0004.77,0002.51
2023-10-18 11:16:00,SystemResetWarning,0832.1,5.00,000.00,027.9,026.4,000.0,036.5,029.4,18.6,0000.0,0025.88,0004.71,0002.50
2023-10-18 11:17:00,SystemResetWarning,0832.1,5.00,000.00,027.9,026.4,000.0,036.5,029.4,18.6,0000.0,0025.32,0004.66,0002.47
2023-10-18 11:18:00,SystemResetWarning,0832.3,5.00,000.00,027.9,026.4,000.0,036.5,029.4,18.5,0000.0,0025.78,0004.56,0002.45
2023-10-18 11:19:00,SystemResetWarning,0832.1,5.00,000.00,027.9,026.4,000.0,036.5,029.4,18.5,0000.0,0026.20,0004.58,0002.44
2023-10-18 11:20:00,SystemResetWarning,0832.1,5.00,000.00,027.8,026.3,000.0,036.4,029.4,18.5,0000.0,0027.17,0004.65,0002.43
2023-10-18 11:21:00,SystemResetWarning,0832.0,5.00,000.00,027.8,026.3,000.0,036.4,029.3,18.6,0000.0,0024.79,0004.65,0002.44
2023-10-18 11:22:00,SystemResetWarning,0831.8,5.00,000.00,027.8,026.2,000.0,036.4,029.3,18.6,0000.0,0022.79,0004.61,0002.44
2023-10-18 11:23:00,SystemResetWarning,0831.9,5.00,000.00,027.8,026.2,000.0,036.4,029.4,18.6,0000.0,0021.63,0004.55,0002.46
2023-10-18 11:24:00,SystemResetWarning,0831.9,5.00,000.00,027.8,026.2,000.0,036.4,029.3,18.6,0000.0,0021.51,0004.52,0002.47
2023-10-18 11:25:00,SystemResetWarning,0831.9,5.00,000.00,027.8,026.2,000.0,036.4,029.3,18.7,0000.0,0020.76,0004.52,0002.47
2023-10-18 11:26:00,SystemResetWarning,0831.9,5.00,000.00,027.8,026.2,000.0,036.4,029.3,18.7,0000.0,0021.21,0004.50,0002.47
2023-10-18 11:27:00,SystemResetWarning,0831.9,5.00,000.00,027.8,026.2,000.0,036.4,029.4,18.7,0000.0,0021.61,0004.51,0002.47
2023-10-18 11:28:00,SystemResetWarning,0831.9,5.00,000.00,027.8,026.3,000.0,036.4,029.4,18.7,0000.0,0020.90,0004.55,0002.50
2023-10-18 11:29:00,SystemResetWarning,0831.9,5.00,000.00,027.8,026.3,000.0,036.3,029.4,18.7,0000.0,0020.84,0004.60,0002.53
2023-10-18 11:30:00,SystemResetWarning,0831.8,5.00,000.00,027.8,026.3,000.0,036.3,029.4,18.7,0000.0,0020.68,0004.59,0002.53
2023-10-18 11:31:00,SystemResetWarning,0831.8,5.00,000.00,027.8,026.3,000.0,036.4,029.4,18.7,0000.0,0019.65,0004.55,0002.54
2023-10-18 11:32:00,SystemResetWarning,0831.8,5.00,000.00,027.8,026.3,000.0,036.3,029.4,18.7,0000.0,0018.94,0004.54,0002.53
2023-10-18 11:33:00,SystemResetWarning,0831.8,5.00,000.00,027.8,026.3,000.0,036.3,029.4,18.8,0000.0,0019.35,0004.63,0002.54
2023-10-18 11:34:00,SystemResetWarning,0831.9,5.00,000.00,027.8,026.3,000.0,036.3,029.3,18.9,0000.0,0019.24,0004.62,0002.52
2023-10-18 11:35:00,SystemResetWarning,0832.0,5.01,000.00,027.8,026.2,000.0,036.3,029.3,18.9,0000.0,0018.31,0004.62,0002.51
2023-10-18 11:36:00,SystemResetWarning,0832.0,5.00,000.00,027.7,026.2,000.0,036.3,029.3,19.0,0000.0,0018.24,0004.59,0002.51
2023-10-18 11:37:00,SystemResetWarning,0832.0,5.00,000.00,027.7,026.2,000.0,036.3,029.3,19.0,0000.0,0017.52,0004.64,0002.52
2023-10-18 11:38:00,SystemResetWarning,0832.0,5.01,000.00,027.7,026.2,000.0,036.3,029.3,19.1,0000.0,0017.44,0004.62,0002.54
2023-10-18 11:39:00,SystemResetWarning,0832.0,5.00,000.00,027.7,026.2,000.0,036.3,029.3,19.1,0000.0,0018.36,0004.58,0002.53
2023-10-18 11:40:00,SystemResetWarning,0832.1,5.00,000.00,027.7,026.3,000.0,036.3,029.3,19.2,0000.0,0018.47,0004.56,0002.54
2023-10-18 11:41:00,SystemResetWarning,0832.1,5.00,000.00,027.7,026.3,000.0,036.3,029.4,19.2,0000.0,0018.26,0004.56,0002.55
2023-10-18 11:42:00,SystemResetWarning,0832.2,5.00,000.00,027.7,026.3,000.0,036.3,029.4,19.2,0000.0,0019.69,0004.54,0002.55
2023-10-18 11:43:00,SystemResetWarning,0832.2,5.00,000.00,027.7,026.3,000.0,036.3,029.4,19.1,0000.0,0020.58,0004.59,0002.57
2023-10-18 11:44:00,SystemResetWarning,0832.2,4.99,000.00,027.8,026.4,000.0,036.3,029.4,19.1,0000.0,0021.86,0004.56,0002.60
2023-10-18 11:45:00,SystemResetWarning,0832.2,5.00,000.00,027.8,026.4,000.0,036.3,029.4,19.0,0000.0,0022.09,0004.50,0002.60
2023-10-18 11:46:00,SystemResetWarning,0832.2,5.00,000.00,027.8,026.4,000.0,036.3,029.4,18.9,0000.0,0022.75,0004.51,0002.61
2023-10-18 11:47:00,SystemResetWarning,0832.2,5.00,000.00,027.8,026.4,000.0,036.3,029.4,18.9,0000.0,0023.50,0004.60,0002.60
2023-10-18 11:48:00,SystemResetWarning,0832.2,5.00,000.00,027.8,026.5,000.0,036.3,029.4,18.9,0000.0,0024.60,0004.62,0002.61
2023-10-18 11:49:00,SystemResetWarning,0832.2,5.00,000.00,027.8,026.5,000.0,036.3,029.5,18.8,0000.0,0023.95,0004.66,0002.60
2023-10-18 11:50:00,SystemResetWarning,0832.1,5.00,000.00,027.8,026.5,000.0,036.3,029.4,18.8,0000.0,0023.77,0004.65,0002.59
2023-10-18 11:51:00,SystemResetWarning,0832.2,5.00,000.00,027.8,026.5,000.0,036.3,029.4,18.7,0000.0,0024.41,0004.67,0002.58
2023-10-18 11:52:00,SystemResetWarning,0832.2,5.00,000.00,027.8,026.5,000.0,036.3,029.5,18.6,0000.0,0025.33,0004.76,0002.57
2023-10-18 11:53:00,SystemResetWarning,0832.2,5.00,000.00,027.8,026.5,000.0,036.3,029.5,18.5,0000.0,0023.90,0004.73,0002.57
2023-10-18 11:54:00,SystemResetWarning,0832.2,5.00,000.00,027.8,026.5,000.0,036.3,029.5,18.5,0000.0,0024.70,0004.61,0002.54
2023-10-18 11:55:00,SystemResetWarning,0832.3,5.01,000.00,027.8,026.5,000.0,036.3,029.5,18.4,0000.0,0023.41,0004.55,0002.51
2023-10-18 11:56:00,SystemResetWarning,0832.2,5.00,000.00,027.8,026.4,000.0,036.3,029.5,18.4,0000.0,0023.61,0004.58,0002.51
2023-10-18 11:57:00,SystemResetWarning,0832.3,5.00,000.00,027.8,026.4,000.0,036.3,029.4,18.6,0000.0,0023.09,0004.53,0002.48
2023-10-18 11:58:00,SystemResetWarning,0832.3,5.00,000.00,027.8,026.4,000.0,036.3,029.4,18.6,0000.0,0023.41,0004.40,0002.46
2023-10-18 11:59:00,SystemResetWarning,0832.3,5.00,000.00,027.8,026.4,000.0,036.3,029.4,18.6,0000.0,0021.84,0004.35,0002.44
